Change the Weather History Date:

Sunday, September 25, 2011

  Actual Average Record
Temperature  
Mean Temperature 52 °F -  
Max Temperature 60 °F 62 °F 77 °F (1998)
Min Temperature 45 °F 38 °F 28 °F (2000)
Degree Days  
Heating Degree Days 12    
Growing Degree Days 2 (Base 50)    
Moisture  
Dew Point 49 °F    
Average Humidity 88    
Maximum Humidity 100    
Minimum Humidity 64    
Precipitation  
Precipitation 0.00 in - - ()
Sea Level Pressure  
Sea Level Pressure 30.05 in    
Wind  
Wind Speed 5 mph (East)    
Max Wind Speed 13 mph    
Max Gust Speed 17 mph    
Visibility 9 miles    
Events Rain    
Averages and records for this station are not official NWS values.
T = Trace of Precipitation, MM = Missing Value Source: NWS Daily Summary

Daily Weather History Graph

Daily Weather History Graph

Search for Another Location

Airport or City:

Trip Planner

Search our weather history database for the weather conditions in past years. The results will help you decide how hot, cold, wet, or windy it might be!

Date:

Astronomy

Sep. 25, 2011 Rise Set
Actual Time 6:47 AM CDT 6:49 PM CDT
Civil Twilight 6:17 AM CDT 7:18 PM CDT
Nautical Twilight 5:42 AM CDT 7:53 PM CDT
Astronomical Twilight 5:07 AM CDT 8:29 PM CDT
Moon 4:29 AM CDT (9/25) 5:32 PM CDT (9/25)
Length of Visible Light 13h 01m
Length of Day
12h 01m
Waning Crescent, 5% of the Moon is Illuminated
Sep 25
Waning Crescent
Sep 27
New
Oct 3
First Quarter
Oct 11
Full
Oct 19
Last Quarter

Hourly Weather History & Observations

Time (CDT) Temp. Windchill Dew Point Humidity Pressure Visibility Wind Dir Wind Speed Gust Speed Precip Events Conditions
12:15 AM 47.8 °F - 48.2 °F 100% 30.05 in 3.0 mi NE 5.8 mph - N/A   Overcast
12:35 AM 47.8 °F - 48.2 °F 100% 30.05 in 3.0 mi NE 3.5 mph - N/A   Overcast
12:55 AM 48.0 °F - 48.2 °F 100% 30.04 in 2.5 mi ENE 3.5 mph - N/A   Drizzle
1:15 AM 48.4 °F - 48.6 °F 100% 30.04 in 5.0 mi Calm Calm - N/A   Overcast
1:35 AM - - - N/A% 30.04 in 7.0 mi Calm Calm - N/A   Overcast
2:15 AM 49.3 °F - 49.5 °F 100% 30.04 in 10.0 mi ESE 3.5 mph - N/A   Overcast
2:35 AM 49.6 °F - 50.0 °F 100% 30.03 in 10.0 mi SE 3.5 mph - N/A   Overcast
2:55 AM 49.6 °F - 49.8 °F 100% 30.04 in 10.0 mi SSE 3.5 mph - N/A   Overcast
3:15 AM 49.1 °F - 49.3 °F 100% 30.04 in 10.0 mi SSE 3.5 mph - N/A   Overcast
3:35 AM 49.1 °F - 49.1 °F 100% 30.05 in 10.0 mi Calm Calm - N/A   Overcast
3:55 AM 48.6 °F - 48.7 °F 100% 30.05 in 10.0 mi Calm Calm - N/A   Overcast
4:15 AM 48.2 °F - 48.4 °F 100% 30.05 in 10.0 mi Calm Calm - N/A   Overcast
4:35 AM 47.7 °F - 47.8 °F 100% 30.05 in 10.0 mi Calm Calm - N/A   Overcast
4:55 AM 47.7 °F - 47.8 °F 100% 30.05 in 10.0 mi Calm Calm - N/A   Overcast
5:15 AM 47.5 °F - 47.7 °F 100% 30.06 in 10.0 mi East 4.6 mph - N/A   Overcast
5:35 AM 47.3 °F - 47.5 °F 100% 30.06 in 10.0 mi Calm Calm - N/A   Overcast
5:55 AM - - - N/A% 30.07 in 10.0 mi Calm Calm - N/A   Overcast
6:15 AM 46.4 °F 45.2 °F 46.6 °F 100% 30.07 in 10.0 mi NE 3.5 mph - N/A   Overcast
6:35 AM 46.0 °F 43.9 °F 46.2 °F 100% 30.07 in 10.0 mi NE 4.6 mph - N/A   Overcast
6:55 AM 45.7 °F 43.4 °F 45.9 °F 100% 30.09 in 10.0 mi ENE 4.6 mph - N/A   Overcast
7:15 AM 45.7 °F 44.4 °F 45.9 °F 100% 30.10 in 10.0 mi East 3.5 mph - N/A   Overcast
7:35 AM 45.9 °F 44.6 °F 46.0 °F 100% 30.10 in 7.0 mi NNE 3.5 mph - N/A   Overcast
7:55 AM 46.2 °F 44.1 °F 46.4 °F 100% 30.10 in 10.0 mi ENE 4.6 mph - N/A   Overcast
8:15 AM 46.6 °F - 46.8 °F 100% 30.11 in 10.0 mi East 5.8 mph - N/A   Overcast
8:35 AM - - - N/A% 30.11 in 10.0 mi ENE 5.8 mph - N/A   Overcast
9:15 AM 48.6 °F - 48.2 °F 99% 30.11 in 10.0 mi NE 5.8 mph - N/A   Overcast
9:35 AM 49.1 °F - 48.6 °F 98% 30.10 in 10.0 mi ENE 6.9 mph - N/A   Overcast
9:55 AM 49.6 °F - 49.5 °F 99% 30.10 in 10.0 mi ENE 5.8 mph - N/A   Overcast
10:15 AM 50.9 °F - 50.0 °F 97% 30.10 in 10.0 mi East 8.1 mph - N/A   Overcast
10:35 AM 51.4 °F - 50.0 °F 95% 30.10 in 10.0 mi East 9.2 mph - N/A   Overcast
10:55 AM 52.2 °F - 50.4 °F 94% 30.10 in 10.0 mi East 6.9 mph 16.1 mph N/A   Overcast
11:15 AM 53.6 °F - 50.4 °F 89% 30.09 in 10.0 mi East 10.4 mph - N/A   Overcast
11:35 AM 55.0 °F - 51.1 °F 86% 30.08 in 10.0 mi East 10.4 mph 16.1 mph N/A   Overcast
11:55 AM 55.9 °F - 51.1 °F 84% 30.07 in 10.0 mi East 11.5 mph - N/A   Overcast
12:15 PM 55.4 °F - 51.3 °F 86% 30.07 in 10.0 mi East 10.4 mph - N/A   Overcast
12:35 PM 56.5 °F - 51.1 °F 82% 30.05 in 10.0 mi ESE 8.1 mph - N/A   Overcast
12:55 PM 58.1 °F - 49.1 °F 72% 30.05 in 10.0 mi East 9.2 mph - N/A   Mostly Cloudy
1:15 PM 58.6 °F - 49.5 °F 72% 30.04 in 10.0 mi ESE 11.5 mph - N/A   Mostly Cloudy
1:35 PM 58.8 °F - 48.4 °F 68% 30.04 in 10.0 mi ESE 12.7 mph 17.3 mph N/A   Overcast
1:55 PM 59.0 °F - 49.1 °F 70% 30.03 in 10.0 mi East 11.5 mph 17.3 mph N/A   Overcast
2:15 PM 59.2 °F - 48.9 °F 69% 30.03 in 10.0 mi East 12.7 mph - N/A   Overcast
2:55 PM 58.5 °F - 48.4 °F 69% 30.01 in 10.0 mi ENE 9.2 mph - N/A   Overcast
3:35 PM 60.1 °F - 48.7 °F 66% 29.99 in 10.0 mi East 9.2 mph - N/A   Overcast
3:55 PM 60.1 °F - 48.2 °F 65% 29.99 in 10.0 mi ENE 10.4 mph - N/A   Overcast
4:15 PM 60.1 °F - 48.0 °F 64% 29.99 in 10.0 mi East 10.4 mph 17.3 mph N/A   Overcast
4:35 PM 59.5 °F - 47.7 °F 65% 29.99 in 10.0 mi ENE 8.1 mph - N/A   Overcast
5:15 PM 59.0 °F - 48.2 °F 67% 29.99 in 10.0 mi ENE 10.4 mph - N/A   Overcast
5:55 PM 58.5 °F - 48.6 °F 70% 29.98 in 10.0 mi ENE 8.1 mph - N/A   Overcast
6:15 PM 58.1 °F - 48.7 °F 71% 29.98 in 10.0 mi ENE 8.1 mph - N/A   Overcast
6:35 PM 57.9 °F - 49.1 °F 72% 29.98 in 10.0 mi ENE 9.2 mph - N/A Rain Light Rain
6:55 PM 57.6 °F - 48.6 °F 72% 29.97 in 10.0 mi ENE 8.1 mph - N/A Rain Rain
7:15 PM 56.8 °F - 49.1 °F 75% 29.97 in 10.0 mi NE 8.1 mph - N/A   Overcast
7:35 PM 56.7 °F - 48.9 °F 75% 29.97 in 10.0 mi NE 6.9 mph - N/A   Overcast
7:55 PM 56.3 °F - 49.1 °F 77% 29.97 in 10.0 mi ENE 6.9 mph - N/A   Mostly Cloudy
8:15 PM 56.7 °F - 49.1 °F 76% 29.97 in 10.0 mi ENE 9.2 mph - N/A   Mostly Cloudy
8:55 PM 57.2 °F - 48.9 °F 74% 29.97 in 10.0 mi ENE 9.2 mph 17.3 mph N/A   Overcast
9:15 PM 57.2 °F - 49.1 °F 74% 29.97 in 10.0 mi ENE 11.5 mph 17.3 mph N/A   Overcast
9:35 PM 57.0 °F - 49.3 °F 75% 29.97 in 10.0 mi ENE 10.4 mph - N/A   Mostly Cloudy
10:15 PM 56.3 °F - 49.8 °F 79% 29.99 in 10.0 mi East 9.2 mph - N/A   Mostly Cloudy
10:35 PM 55.8 °F - 50.2 °F 82% 29.99 in 10.0 mi East 8.1 mph 17.3 mph N/A   Drizzle
10:55 PM 55.0 °F - 50.4 °F 84% 29.98 in 10.0 mi ENE 10.4 mph 16.1 mph N/A   Overcast
11:15 PM 54.5 °F - 51.8 °F 91% 29.99 in 10.0 mi East 8.1 mph - N/A Rain Rain
11:35 PM 54.3 °F - 53.4 °F 97% 29.99 in 10.0 mi East 6.9 mph - N/A Rain Light Rain
11:55 PM 54.0 °F - 53.6 °F 99% 29.98 in 10.0 mi East 9.2 mph - N/A   Light Drizzle